RYR86FZ LEBL-LIRF

Flight info

Callsign RYR86FZ
Flight time 1h 12m
Altitude 34000
Route DIPES N725 OSPOK/N0438F370 DCT NOLVI DCT ORKUM/N0437F380 DCT ELSAG DCT ALG DCT ROMPO DCT RUXOP DCT BATOX DCT TINTO/N0333F180 L5 VALMA
Aircraft B738/M-SADE3FGHIJ1J7LP2RWXY/SB1D1G1

Departure

Time 2026-05-07 20:10
Airport Josep Tarradellas Barcelona-El Prat Airport (LEBL)

Arrival

Time 2026-05-07 21:22
Airport Rome–Fiumicino Leonardo da Vinci International Airport (LIRF)
Time Latitude Longitude Altitude Speed Heading
2026-05-07 19:46 41.30098 2.07540 21 ft 0 kts 305°
2026-05-07 19:58 41.30091 2.07553 20 ft 3 kts 303°
2026-05-07 19:58 41.30081 2.07576 20 ft 3 kts 296°
2026-05-07 19:59 41.30073 2.07600 21 ft 3 kts 276°
2026-05-07 19:59 41.30073 2.07619 20 ft 3 kts 217°
2026-05-07 19:59 41.30072 2.07624 20 ft 1 kts 155°
2026-05-07 19:59 41.30073 2.07623 20 ft 1 kts 155°
2026-05-07 20:02 41.30061 2.07631 20 ft 6 kts 154°
2026-05-07 20:02 41.29987 2.07681 16 ft 12 kts 141°
2026-05-07 20:02 41.29919 2.07708 15 ft 12 kts 208°
2026-05-07 20:02 41.29875 2.07614 16 ft 12 kts 245°
2026-05-07 20:03 41.29840 2.07511 15 ft 13 kts 245°
2026-05-07 20:03 41.29797 2.07386 15 ft 16 kts 245°
2026-05-07 20:03 41.29747 2.07239 16 ft 18 kts 246°
2026-05-07 20:03 41.29695 2.07088 15 ft 18 kts 245°
2026-05-07 20:04 41.29619 2.06991 14 ft 15 kts 172°
2026-05-07 20:04 41.29556 2.07026 15 ft 0 kts 155°
2026-05-07 20:04 41.29553 2.07028 15 ft 1 kts 157°
2026-05-07 20:04 41.29551 2.07029 15 ft 0 kts 156°
2026-05-07 20:07 41.29540 2.07035 -10 ft 3 kts 156°
2026-05-07 20:07 41.29507 2.07055 14 ft 7 kts 156°
2026-05-07 20:07 41.29462 2.07090 16 ft 8 kts 118°
2026-05-07 20:07 41.29471 2.07157 17 ft 7 kts 66°
2026-05-07 20:08 41.29491 2.07218 16 ft 7 kts 66°
2026-05-07 20:08 41.29499 2.07242 18 ft 0 kts 65°
2026-05-07 20:08 41.29515 2.07287 18 ft 21 kts 65°
2026-05-07 20:09 41.29682 2.07770 16 ft 92 kts 66°
2026-05-07 20:09 41.30039 2.08793 26 ft 150 kts 63°
2026-05-07 20:09 41.30465 2.10166 460 ft 161 kts 68°
2026-05-07 20:10 41.31374 2.12803 1837 ft 175 kts 66°
2026-05-07 20:10 41.31931 2.14401 2118 ft 204 kts 66°
2026-05-07 20:10 41.32565 2.16222 2338 ft 229 kts 65°
2026-05-07 20:10 41.33082 2.18339 2613 ft 252 kts 89°
2026-05-07 20:11 41.32659 2.20594 3388 ft 255 kts 113°
2026-05-07 20:11 41.32278 2.22885 4242 ft 257 kts 91°
2026-05-07 20:11 41.32309 2.25272 5086 ft 260 kts 90°
2026-05-07 20:11 41.32311 2.27700 5883 ft 264 kts 91°
2026-05-07 20:12 41.32286 2.30167 6651 ft 268 kts 91°
2026-05-07 20:12 41.32242 2.32661 7411 ft 271 kts 92°
2026-05-07 20:12 41.32185 2.35173 8162 ft 275 kts 92°
2026-05-07 20:12 41.32117 2.37740 8888 ft 280 kts 92°
2026-05-07 20:13 41.32043 2.40333 9702 ft 281 kts 92°
2026-05-07 20:13 41.31965 2.42955 10350 ft 288 kts 92°
2026-05-07 20:13 41.31881 2.45653 10945 ft 294 kts 92°
2026-05-07 20:13 41.31794 2.48399 11602 ft 300 kts 91°
2026-05-07 20:14 41.31704 2.51194 12312 ft 304 kts 91°
2026-05-07 20:14 41.31613 2.54024 13054 ft 309 kts 91°
2026-05-07 20:14 41.31518 2.56897 13778 ft 313 kts 91°
2026-05-07 20:14 41.31421 2.59820 14433 ft 319 kts 92°
2026-05-07 20:15 41.31337 2.62789 15048 ft 325 kts 89°
2026-05-07 20:15 41.31462 2.65798 15782 ft 328 kts 85°
2026-05-07 20:15 41.31697 2.68834 16455 ft 333 kts 84°
2026-05-07 20:15 41.31956 2.71913 17051 ft 340 kts 85°
2026-05-07 20:16 41.32215 2.75103 17210 ft 362 kts 85°
2026-05-07 20:16 41.32481 2.78549 17526 ft 376 kts 85°
2026-05-07 20:16 41.32737 2.82003 18095 ft 383 kts 86°
2026-05-07 20:16 41.32991 2.85546 18714 ft 386 kts 86°
2026-05-07 20:17 41.33242 2.89112 19338 ft 388 kts 86°
2026-05-07 20:17 41.33492 2.92701 19946 ft 391 kts 86°
2026-05-07 20:17 41.33741 2.96321 20518 ft 395 kts 86°
2026-05-07 20:17 41.33991 2.99972 21087 ft 398 kts 86°
2026-05-07 20:18 41.34244 3.03664 21654 ft 402 kts 86°
2026-05-07 20:18 41.34498 3.07379 22244 ft 403 kts 87°
2026-05-07 20:18 41.34748 3.11093 22929 ft 403 kts 88°
2026-05-07 20:18 41.34567 3.14796 23391 ft 402 kts 108°
2026-05-07 20:19 41.33460 3.18181 23840 ft 399 kts 126°
2026-05-07 20:19 41.31683 3.20992 24323 ft 396 kts 137°
2026-05-07 20:19 41.29718 3.23561 24792 ft 398 kts 138°
2026-05-07 20:19 41.27703 3.26135 25095 ft 405 kts 139°
2026-05-07 20:20 41.25666 3.28740 25537 ft 407 kts 139°
2026-05-07 20:20 41.23637 3.31358 26042 ft 407 kts 138°
2026-05-07 20:20 41.21611 3.33992 26533 ft 408 kts 138°
2026-05-07 20:20 41.19587 3.36637 26981 ft 409 kts 138°
2026-05-07 20:21 41.17552 3.39300 27393 ft 412 kts 138°
2026-05-07 20:21 41.15509 3.41976 27806 ft 414 kts 138°
2026-05-07 20:21 41.13452 3.44667 28202 ft 416 kts 139°
2026-05-07 20:21 41.11387 3.47366 28603 ft 418 kts 139°
2026-05-07 20:22 41.09308 3.50078 29001 ft 420 kts 139°
2026-05-07 20:22 41.07280 3.52883 29321 ft 426 kts 131°
2026-05-07 20:22 41.05815 3.56370 29367 ft 444 kts 112°
2026-05-07 20:22 41.05023 3.60359 29722 ft 449 kts 106°
2026-05-07 20:23 41.04349 3.64402 30130 ft 450 kts 106°
2026-05-07 20:23 41.03675 3.68457 30416 ft 452 kts 106°
2026-05-07 20:23 41.02975 3.72523 30678 ft 454 kts 107°
2026-05-07 20:23 41.02246 3.76604 30934 ft 456 kts 107°
2026-05-07 20:24 41.01505 3.80692 31223 ft 457 kts 108°
2026-05-07 20:24 41.00756 3.84807 31331 ft 464 kts 108°
2026-05-07 20:24 40.99998 3.88972 31539 ft 466 kts 108°
2026-05-07 20:24 40.99243 3.93138 31980 ft 463 kts 108°
2026-05-07 20:25 40.98493 3.97273 32492 ft 459 kts 108°
2026-05-07 20:25 40.97750 4.01366 32907 ft 457 kts 108°
2026-05-07 20:25 40.97004 4.05458 33229 ft 458 kts 109°
2026-05-07 20:25 40.96255 4.09552 33533 ft 458 kts 109°
2026-05-07 20:26 40.95515 4.13586 33885 ft 457 kts 109°
2026-05-07 20:26 40.94762 4.17682 33987 ft 461 kts 109°
2026-05-07 20:26 40.94002 4.21803 33981 ft 460 kts 108°
2026-05-07 20:27 40.92505 4.29930 33987 ft 450 kts 108°
2026-05-07 20:27 40.91021 4.37972 33999 ft 451 kts 108°
2026-05-07 20:28 40.89534 4.46043 33995 ft 452 kts 108°
2026-05-07 20:28 40.88038 4.54131 33995 ft 454 kts 108°
2026-05-07 20:29 40.86534 4.62230 33983 ft 454 kts 109°
2026-05-07 20:29 40.85217 4.70431 34021 ft 462 kts 103°
2026-05-07 20:29 40.84813 4.74647 34223 ft 464 kts 101°
2026-05-07 20:30 40.84460 4.78880 34490 ft 464 kts 101°
2026-05-07 20:30 40.84114 4.83119 34762 ft 463 kts 101°
2026-05-07 20:30 40.83760 4.87345 35001 ft 464 kts 101°
2026-05-07 20:30 40.83388 4.91581 35183 ft 465 kts 101°
2026-05-07 20:31 40.83002 4.95829 35369 ft 466 kts 102°
2026-05-07 20:31 40.82606 5.00088 35523 ft 469 kts 102°
2026-05-07 20:31 40.82202 5.04361 35705 ft 470 kts 102°
2026-05-07 20:31 40.81795 5.08640 35950 ft 470 kts 102°
2026-05-07 20:32 40.81524 5.11475 36114 ft 470 kts 102°
2026-05-07 20:32 40.81115 5.15760 36312 ft 471 kts 102°
2026-05-07 20:32 40.80703 5.20048 36486 ft 472 kts 102°
2026-05-07 20:32 40.80289 5.24344 36688 ft 473 kts 102°
2026-05-07 20:33 40.79873 5.28650 36901 ft 473 kts 102°
2026-05-07 20:33 40.79031 5.37311 36970 ft 479 kts 102°
2026-05-07 20:34 40.78179 5.46030 36966 ft 477 kts 102°
2026-05-07 20:34 40.77333 5.54636 36964 ft 471 kts 102°
2026-05-07 20:35 40.76481 5.63196 36975 ft 470 kts 102°
2026-05-07 20:35 40.75623 5.71752 36960 ft 470 kts 103°
2026-05-07 20:36 40.74759 5.80309 36979 ft 471 kts 103°
2026-05-07 20:36 40.73888 5.88877 36988 ft 472 kts 103°
2026-05-07 20:37 40.73006 5.97482 36978 ft 474 kts 103°
2026-05-07 20:37 40.72110 6.06106 36974 ft 476 kts 103°
2026-05-07 20:38 40.71204 6.14759 36962 ft 477 kts 104°
2026-05-07 20:38 40.70296 6.23375 36974 ft 478 kts 104°
2026-05-07 20:39 40.68882 6.31857 36978 ft 471 kts 113°
2026-05-07 20:39 40.67003 6.40138 36962 ft 472 kts 113°
2026-05-07 20:40 40.65452 6.48580 36956 ft 480 kts 103°
2026-05-07 20:40 40.64745 6.57355 36955 ft 483 kts 102°
2026-05-07 20:41 40.64070 6.66147 36965 ft 483 kts 102°
2026-05-07 20:41 40.63313 6.74927 36962 ft 483 kts 103°
2026-05-07 20:42 40.62511 6.83701 36964 ft 483 kts 103°
2026-05-07 20:42 40.61699 6.92469 36957 ft 483 kts 103°
2026-05-07 20:43 40.60882 7.01248 36962 ft 484 kts 103°
2026-05-07 20:43 40.60058 7.10040 36959 ft 484 kts 104°
2026-05-07 20:44 40.59228 7.18841 36949 ft 485 kts 104°
2026-05-07 20:44 40.58391 7.27648 36952 ft 486 kts 104°
2026-05-07 20:45 40.57545 7.36467 36952 ft 486 kts 104°
2026-05-07 20:45 40.56695 7.45283 36950 ft 486 kts 103°
2026-05-07 20:46 40.56756 7.54285 37053 ft 500 kts 88°
2026-05-07 20:46 40.57182 7.58817 37287 ft 500 kts 87°
2026-05-07 20:46 40.57632 7.63365 37396 ft 503 kts 87°
2026-05-07 20:46 40.58070 7.67932 37574 ft 503 kts 87°
2026-05-07 20:47 40.58486 7.72490 37848 ft 501 kts 88°
2026-05-07 20:47 40.58884 7.77046 37957 ft 503 kts 88°
2026-05-07 20:47 40.59270 7.81632 37945 ft 504 kts 88°
2026-05-07 20:48 40.60033 7.90774 37930 ft 501 kts 88°
2026-05-07 20:48 40.60785 7.99780 37911 ft 497 kts 88°
2026-05-07 20:49 40.61530 8.08794 37931 ft 494 kts 88°
2026-05-07 20:49 40.62264 8.17782 37963 ft 497 kts 88°
2026-05-07 20:50 40.63473 8.26831 37937 ft 509 kts 73°
2026-05-07 20:50 40.66155 8.35494 37915 ft 512 kts 68°
2026-05-07 20:51 40.68982 8.44108 37927 ft 513 kts 68°
2026-05-07 20:51 40.71761 8.52778 37939 ft 513 kts 69°
2026-05-07 20:52 40.74492 8.61469 37943 ft 513 kts 69°
2026-05-07 20:52 40.77205 8.70171 37924 ft 512 kts 69°
2026-05-07 20:53 40.79903 8.78848 37953 ft 510 kts 69°
2026-05-07 20:53 40.82592 8.87512 37940 ft 509 kts 69°
2026-05-07 20:54 40.85270 8.96163 37955 ft 508 kts 69°
2026-05-07 20:54 40.87934 9.04797 37947 ft 507 kts 69°
2026-05-07 20:55 40.90588 9.13430 37946 ft 506 kts 69°
2026-05-07 20:55 40.93234 9.22063 37951 ft 507 kts 69°
2026-05-07 20:56 40.95880 9.30723 37965 ft 510 kts 69°
2026-05-07 20:56 40.98534 9.39441 37988 ft 518 kts 69°
2026-05-07 20:57 41.01239 9.48354 37956 ft 525 kts 69°
2026-05-07 20:57 41.03966 9.57371 37989 ft 531 kts 69°
2026-05-07 20:58 41.06716 9.66495 37987 ft 535 kts 69°
2026-05-07 20:58 41.09454 9.75604 37963 ft 528 kts 69°
2026-05-07 20:59 41.12127 9.84608 37927 ft 523 kts 69°
2026-05-07 20:59 41.13448 9.89115 37469 ft 526 kts 69°
2026-05-07 20:59 41.14769 9.93625 36981 ft 522 kts 69°
2026-05-07 20:59 41.16081 9.98101 36404 ft 520 kts 69°
2026-05-07 21:00 41.17393 10.02572 35826 ft 519 kts 69°
2026-05-07 21:00 41.18724 10.07025 35188 ft 519 kts 68°
2026-05-07 21:00 41.20065 10.11478 34555 ft 519 kts 68°
2026-05-07 21:00 41.21402 10.15933 33864 ft 520 kts 69°
2026-05-07 21:01 41.22732 10.20405 33075 ft 520 kts 69°
2026-05-07 21:01 41.24050 10.24870 32369 ft 518 kts 69°
2026-05-07 21:01 41.25351 10.29299 31906 ft 511 kts 69°
2026-05-07 21:01 41.26635 10.33680 31383 ft 506 kts 69°
2026-05-07 21:02 41.27907 10.38023 30888 ft 501 kts 69°
2026-05-07 21:02 41.29161 10.42308 30405 ft 495 kts 69°
2026-05-07 21:02 41.30404 10.46558 29918 ft 490 kts 70°
2026-05-07 21:02 41.31630 10.50757 29360 ft 484 kts 70°
2026-05-07 21:03 41.32836 10.54894 28858 ft 474 kts 70°
2026-05-07 21:03 41.34007 10.58916 28355 ft 459 kts 70°
2026-05-07 21:03 41.35141 10.62815 27885 ft 445 kts 70°
2026-05-07 21:03 41.36227 10.66556 27424 ft 433 kts 70°
2026-05-07 21:04 41.37297 10.70247 26977 ft 422 kts 70°
2026-05-07 21:04 41.38342 10.73860 26524 ft 415 kts 70°
2026-05-07 21:04 41.39374 10.77436 26102 ft 414 kts 71°
2026-05-07 21:04 41.40412 10.81038 25686 ft 423 kts 71°
2026-05-07 21:05 41.41481 10.84760 25214 ft 435 kts 71°
2026-05-07 21:05 41.42563 10.88520 24723 ft 434 kts 71°
2026-05-07 21:05 41.43639 10.92262 24249 ft 431 kts 71°
2026-05-07 21:05 41.44705 10.95976 23772 ft 428 kts 71°
2026-05-07 21:06 41.45764 10.99670 23271 ft 425 kts 71°
2026-05-07 21:06 41.46814 11.03341 22753 ft 422 kts 71°
2026-05-07 21:06 41.47852 11.06972 22271 ft 418 kts 71°
2026-05-07 21:06 41.48873 11.10573 21823 ft 413 kts 71°
2026-05-07 21:07 41.49878 11.14143 21357 ft 409 kts 71°
2026-05-07 21:07 41.50871 11.17677 20900 ft 405 kts 71°
2026-05-07 21:07 41.51855 11.21185 20450 ft 402 kts 71°
2026-05-07 21:07 41.52829 11.24660 20002 ft 398 kts 71°
2026-05-07 21:08 41.53794 11.28108 19556 ft 395 kts 71°
2026-05-07 21:08 41.54752 11.31532 19107 ft 392 kts 71°
2026-05-07 21:08 41.55702 11.34928 18667 ft 390 kts 71°
2026-05-07 21:08 41.56644 11.38304 18339 ft 384 kts 71°
2026-05-07 21:09 41.57564 11.41600 18130 ft 374 kts 71°
2026-05-07 21:09 41.58471 11.44836 17707 ft 371 kts 71°
2026-05-07 21:09 41.59379 11.48050 17296 ft 368 kts 71°
2026-05-07 21:09 41.60485 11.51096 16978 ft 363 kts 56°
2026-05-07 21:10 41.62055 11.53634 16877 ft 345 kts 45°
2026-05-07 21:10 41.63831 11.55674 16750 ft 328 kts 37°
2026-05-07 21:10 41.65627 11.57462 16305 ft 322 kts 36°
2026-05-07 21:10 41.67474 11.59286 15241 ft 338 kts 36°
2026-05-07 21:11 41.69405 11.61194 14213 ft 350 kts 37°
2026-05-07 21:11 41.71372 11.63147 13344 ft 354 kts 37°
2026-05-07 21:11 41.75278 11.67047 11990 ft 345 kts 37°
2026-05-07 21:12 41.77195 11.68968 11223 ft 344 kts 37°
2026-05-07 21:12 41.79100 11.70881 10642 ft 339 kts 37°
2026-05-07 21:12 41.80970 11.72762 10049 ft 335 kts 37°
2026-05-07 21:12 41.82820 11.74624 9438 ft 330 kts 37°
2026-05-07 21:13 41.84636 11.76455 8842 ft 324 kts 38°
2026-05-07 21:13 41.86402 11.78337 8122 ft 323 kts 46°
2026-05-07 21:13 41.87832 11.80619 7565 ft 317 kts 53°
2026-05-07 21:13 41.89146 11.82961 6977 ft 313 kts 57°
2026-05-07 21:14 41.90196 11.85502 6328 ft 310 kts 65°
2026-05-07 21:14 41.91068 11.88103 6009 ft 297 kts 67°
2026-05-07 21:14 41.91867 11.90561 5891 ft 279 kts 67°
2026-05-07 21:14 41.92629 11.92873 5770 ft 262 kts 67°
2026-05-07 21:15 41.93356 11.95050 5517 ft 254 kts 66°
2026-05-07 21:15 41.94105 11.97268 4999 ft 264 kts 66°
2026-05-07 21:15 41.94866 11.99501 4777 ft 261 kts 66°
2026-05-07 21:15 41.95610 12.01669 4715 ft 251 kts 65°
2026-05-07 21:16 41.96340 12.03793 4469 ft 249 kts 65°
2026-05-07 21:16 41.97067 12.05909 4172 ft 249 kts 65°
2026-05-07 21:16 41.97798 12.08028 3874 ft 249 kts 64°
2026-05-07 21:16 41.98512 12.10098 3811 ft 240 kts 64°
2026-05-07 21:17 41.99200 12.12094 3732 ft 231 kts 64°
2026-05-07 21:17 41.99861 12.14017 3668 ft 222 kts 64°
2026-05-07 21:17 42.00493 12.15855 3587 ft 210 kts 64°
2026-05-07 21:17 42.00915 12.17656 3487 ft 199 kts 90°
2026-05-07 21:18 42.00396 12.19306 3163 ft 196 kts 135°
2026-05-07 21:18 41.99159 12.20051 2989 ft 199 kts 163°
2026-05-07 21:18 41.97837 12.20570 2714 ft 196 kts 159°
2026-05-07 21:18 41.96551 12.21141 2464 ft 193 kts 159°
2026-05-07 21:19 41.95279 12.21684 2201 ft 190 kts 160°
2026-05-07 21:19 41.94451 12.22030 2033 ft 185 kts 159°
2026-05-07 21:19 41.93247 12.22534 1812 ft 180 kts 160°
2026-05-07 21:19 41.92044 12.23037 1566 ft 182 kts 160°
2026-05-07 21:20 41.90500 12.23682 1251 ft 169 kts 160°
2026-05-07 21:20 41.89409 12.24138 1023 ft 160 kts 161°
2026-05-07 21:20 41.88371 12.24574 826 ft 154 kts 162°
2026-05-07 21:20 41.87680 12.24863 693 ft 154 kts 161°
2026-05-07 21:21 41.86654 12.25291 486 ft 155 kts 162°
2026-05-07 21:21 41.85627 12.25726 304 ft 154 kts 162°
2026-05-07 21:21 41.84613 12.26143 87 ft 151 kts 162°
2026-05-07 21:21 41.83663 12.26543 15 ft 121 kts 163°
2026-05-07 21:22 41.83072 12.26790 11 ft 59 kts 162°
2026-05-07 21:22 41.82713 12.26865 10 ft 39 kts 185°
2026-05-07 21:22 41.82472 12.26800 10 ft 29 kts 191°
2026-05-07 21:22 41.82278 12.26798 11 ft 27 kts 165°
2026-05-07 21:23 41.82183 12.26838 11 ft 13 kts 162°
2026-05-07 21:23 41.82098 12.26873 10 ft 13 kts 162°
2026-05-07 21:23 41.82015 12.26907 10 ft 12 kts 162°
2026-05-07 21:23 41.81935 12.26941 10 ft 12 kts 162°
2026-05-07 21:24 41.81856 12.26953 10 ft 12 kts 197°
2026-05-07 21:24 41.81777 12.26924 10 ft 12 kts 194°
2026-05-07 21:24 41.81686 12.26911 10 ft 14 kts 173°
2026-05-07 21:24 41.81589 12.26949 9 ft 14 kts 163°
2026-05-07 21:25 41.81496 12.26988 9 ft 14 kts 162°
2026-05-07 21:25 41.81407 12.27024 9 ft 13 kts 163°
2026-05-07 21:25 41.81322 12.27061 11 ft 13 kts 162°
2026-05-07 21:25 41.81238 12.27095 10 ft 12 kts 163°
2026-05-07 21:26 41.81156 12.27129 10 ft 13 kts 162°
2026-05-07 21:26 41.81066 12.27167 11 ft 15 kts 161°
2026-05-07 21:26 41.80963 12.27211 11 ft 17 kts 163°
2026-05-07 21:26 41.80842 12.27205 11 ft 18 kts 201°
2026-05-07 21:27 41.80761 12.27084 12 ft 18 kts 252°
2026-05-07 21:27 41.80717 12.26925 14 ft 18 kts 249°
2026-05-07 21:27 41.80673 12.26763 15 ft 19 kts 250°